Location: Smyrna_Hopewell
(35.6500°N, 81.0330°W)
Time: 05:22:32
(UTC-04:00)

Cosmos 2221 - Visible Passes

Search period start: 28 March 2015 00:00
Search period end: 07 April 2015 00:00
Orbit: 596 x 620 km, 82.5° (Epoch: 27 March)

Date Brightness Start Highest point End Pass type
(mag) Time Alt. Az. Time Alt. Az. Time Alt. Az.
28 Mar 5.6 21:20:18 10° WSW 21:23:15 17° WNW 21:26:03 10° NNW visible
30 Mar 6.3 06:07:52 10° NE 06:08:54 11° ENE 06:10:12 10° E visible
30 Mar 2.9 20:08:48 10° SSW 20:13:11 73° W 20:17:33 10° N visible
31 Mar 5.6 06:20:01 10° NNE 06:23:04 19° ENE 06:26:15 10° ESE visible
31 Mar 4.2 20:23:01 10° SSW 20:27:08 39° W 20:31:14 10° N visible
01 Apr 4.5 06:33:15 10° NNE 06:37:09 34° ENE 06:41:03 10° SE visible
01 Apr 5.4 20:37:41 10° SW 20:41:11 22° WNW 20:44:34 10° NNW visible
02 Apr 6.1 20:53:12 10° W 20:55:19 13° WNW 20:57:14 10° NW visible
04 Apr 5.9 05:38:40 10° NE 05:40:57 14° ENE 05:43:25 10° ESE visible
05 Apr 5.0 05:51:32 10° NNE 05:55:04 25° ENE 05:58:38 10° SE visible
06 Apr 3.8 06:04:57 10° N 06:09:04 45° E 06:13:10 10° SSE visible
